Location: Unspecified
(34.4500°N, 0.0000°E)
Time: 23:31:39
(UTC+00:00)

Envisat - Pass Details

Date: 09 March 2021
Orbit: 764 x 766 km, 98.1° (Epoch: 12 April)

Event Time Altitude Azimuth Distance (km) Brightness Sun altitude
Rises 04:39:06 0° 28° (NNE) 3,235 6.8 -21.3°
Reaches altitude 10° 04:41:53 10° 43° (NE) 2,304 6.2 -20.7°
Maximum altitude 04:45:50 23° 95° (E) 1,593 5.5 -19.9°
Drops below altitude 10° 04:49:47 10° 147° (SSE) 2,292 5.8 -19.1°
Sets 04:52:32 0° 161° (SSE) 3,213 6.4 -18.5°
